Weather History for Lebanon, NH

Change the Weather History Date:

Saturday, March 29, 2014

  Actual Average Record
Temperature  
Mean Temperature 42 °F -  
Max Temperature 51 °F 51 °F 83 °F (1946)
Min Temperature 35 °F 27 °F 0 °F (1974)
Degree Days  
Heating Degree Days 22    
Moisture  
Dew Point 34 °F    
Average Humidity 82    
Maximum Humidity 97    
Minimum Humidity 48    
Precipitation  
Precipitation 0.22 in - - ()
Sea Level Pressure  
Sea Level Pressure 30.12 in    
Wind  
Wind Speed 4 mph (NNE)    
Max Wind Speed 14 mph    
Max Gust Speed -    
Visibility 6 miles    
Events Fog , Rain    
Averages and records for this station are not official NWS values.
T = Trace of Precipitation, MM = Missing Value Source: NWS Daily Summary

Daily Weather History Graph

Daily Weather History Graph

Search for Another Location

Airport:

Trip Planner

Search our weather history database for the weather conditions in past years. The results will help you decide how hot, cold, wet, or windy it might be!

Date:

Astronomy

Mar. 29, 2014 Rise Set
Actual Time 6:36 AM EDT 7:12 PM EDT
Civil Twilight 6:07 AM EDT 7:41 PM EDT
Nautical Twilight 5:33 AM EDT 8:15 PM EDT
Astronomical Twilight 4:58 AM EDT 8:50 PM EDT
Moon 5:45 AM EDT (3/29) 6:13 PM EDT (3/29)
Length of Visible Light 13h 33m
Length of Day
12h 36m
Waning Crescent, 2% of the Moon is Illuminated
Mar 29
Waning Crescent
Mar 30
New
Apr 7
First Quarter
Apr 15
Full
Apr 22
Last Quarter

Hourly Weather History & Observations

Time (EDT) Temp. Windchill Dew Point Humidity Pressure Visibility Wind Dir Wind Speed Gust Speed Precip Events Conditions
12:18 AM 37.9 °F - 36.0 °F 93% 30.01 in 0.8 mi Calm Calm - N/A   Overcast
12:23 AM 39.0 °F 36.8 °F 37.0 °F 93% 30.01 in 2.0 mi South 3.5 mph - N/A   Overcast
12:30 AM 36.0 °F 29.6 °F 35.1 °F 97% 30.00 in 1.2 mi South 8.1 mph - N/A   Mostly Cloudy
12:38 AM 37.0 °F 29.8 °F 35.1 °F 93% 30.02 in 0.5 mi NE 10.4 mph - N/A Fog Fog
12:43 AM 39.0 °F 36.8 °F 37.0 °F 93% 30.02 in 1.0 mi ESE 3.5 mph - N/A   Mostly Cloudy
12:49 AM 37.4 °F 34.9 °F 35.6 °F 93% 30.03 in 2.0 mi Variable 3.5 mph - N/A   Mostly Cloudy
12:53 AM 39.0 °F - 37.9 °F 96% 30.05 in 2.0 mi Calm Calm - N/A   Mostly Cloudy
1:01 AM 37.0 °F 34.5 °F 35.1 °F 93% 30.04 in 1.5 mi SW 3.5 mph - N/A   Overcast
1:05 AM 37.9 °F 34.4 °F 35.1 °F 89% 30.04 in 2.0 mi SSW 4.6 mph - N/A   Overcast
1:16 AM 37.0 °F - 36.0 °F 96% 30.05 in 1.0 mi Calm Calm - N/A   Overcast
1:36 AM 37.0 °F 34.5 °F 35.1 °F 93% 30.06 in 1.0 mi SSW 3.5 mph - N/A   Overcast
1:53 AM 35.1 °F 32.2 °F 34.0 °F 96% 30.09 in 3.0 mi SSE 3.5 mph - N/A   Overcast
1:58 AM 37.0 °F - 35.1 °F 93% 30.07 in 2.5 mi Calm Calm - N/A   Overcast
2:09 AM 37.0 °F - 35.1 °F 93% 30.07 in 1.8 mi Calm Calm - N/A   Overcast
2:14 AM 36.0 °F 33.3 °F 34.0 °F 93% 30.08 in 2.0 mi East 3.5 mph - N/A   Overcast
2:25 AM 36.0 °F 31.1 °F 34.0 °F 93% 30.08 in 3.0 mi South 5.8 mph - N/A   Overcast
2:33 AM 37.0 °F - 35.1 °F 93% 30.08 in 2.0 mi Calm Calm - N/A   Overcast
2:53 AM 36.0 °F - 34.0 °F 93% 30.11 in 0.8 mi Calm Calm - N/A   Overcast
3:01 AM 37.9 °F 35.5 °F 35.1 °F 89% 30.10 in 2.0 mi SSW 3.5 mph - N/A   Overcast
3:09 AM 35.1 °F 31.0 °F 34.0 °F 96% 30.09 in 4.0 mi South 4.6 mph - N/A   Overcast
3:40 AM 36.0 °F - 34.0 °F 93% 30.11 in 4.0 mi Calm Calm - N/A   Overcast
3:53 AM 35.1 °F 31.0 °F 33.1 °F 92% 30.13 in 2.5 mi North 4.6 mph - N/A   Overcast
4:01 AM 36.0 °F - 33.1 °F 89% 30.11 in 0.8 mi Calm Calm - N/A   Overcast
4:09 AM 37.0 °F - 35.1 °F 93% 30.11 in 0.8 mi Calm Calm - N/A   Overcast
4:44 AM 36.0 °F 31.1 °F 33.1 °F 89% 30.13 in 1.2 mi North 5.8 mph - N/A   Overcast
4:51 AM 37.4 °F 33.8 °F 35.6 °F 93% 30.13 in 3.0 mi North 4.6 mph - N/A   Overcast
4:53 AM 37.0 °F - 35.1 °F 93% 30.15 in 3.0 mi Calm Calm - N/A   Overcast
5:50 AM 37.4 °F 33.8 °F 35.6 °F 93% 30.17 in 5.0 mi NNE 4.6 mph - N/A   Overcast
5:53 AM 37.0 °F 32.4 °F 35.1 °F 93% 30.19 in 3.0 mi NNE 5.8 mph - N/A   Overcast
6:53 AM 36.0 °F 33.3 °F 33.1 °F 89% 30.22 in 9.0 mi North 3.5 mph - N/A   Overcast
7:08 AM 36.0 °F 33.3 °F 33.1 °F 89% 30.21 in 9.0 mi NNE 3.5 mph - N/A   Overcast
7:19 AM 37.9 °F 32.7 °F 34.0 °F 86% 30.21 in 10.0 mi NNE 6.9 mph - N/A   Overcast
7:53 AM 37.9 °F - 34.0 °F 86% 30.25 in 10.0 mi Calm Calm - N/A   Overcast
8:07 AM 39.0 °F 35.7 °F 34.0 °F 82% 30.23 in 10.0 mi NNW 4.6 mph - N/A   Mostly Cloudy
8:53 AM 41.0 °F 35.8 °F 34.0 °F 76% 30.25 in 10.0 mi NNE 8.1 mph - N/A   Clear
9:53 AM 42.1 °F 34.9 °F 32.0 °F 67% 30.26 in 10.0 mi NE 13.8 mph - N/A   Partly Cloudy
10:24 AM 41.0 °F 34.7 °F 30.9 °F 67% 30.25 in 10.0 mi NNE 10.4 mph - N/A   Mostly Cloudy
10:53 AM 42.1 °F 35.2 °F 30.9 °F 65% 30.26 in 10.0 mi NE 12.7 mph - N/A   Mostly Cloudy
11:19 AM 42.1 °F 37.7 °F 30.9 °F 65% 30.25 in 10.0 mi NNE 6.9 mph - N/A   Scattered Clouds
11:41 AM 44.1 °F 40.8 °F 30.9 °F 60% 30.24 in 10.0 mi NNW 5.8 mph - N/A   Mostly Cloudy
11:53 AM 44.1 °F 40.1 °F 30.9 °F 60% 30.24 in 10.0 mi NNW 6.9 mph - N/A   Scattered Clouds
12:53 PM 46.0 °F 43.9 °F 30.0 °F 54% 30.22 in 10.0 mi West 4.6 mph - N/A   Partly Cloudy
1:53 PM 48.0 °F - 30.0 °F 50% 30.19 in 10.0 mi NW 5.8 mph - N/A   Mostly Cloudy
2:53 PM 50.0 °F - 30.9 °F 48% 30.18 in 10.0 mi NW 3.5 mph - N/A   Overcast
3:53 PM 48.9 °F - 34.0 °F 56% 30.15 in 10.0 mi SE 9.2 mph - N/A   Overcast
4:53 PM 46.9 °F - 34.0 °F 61% 30.14 in 10.0 mi SSE 8.1 mph - N/A   Overcast
5:53 PM 46.9 °F - 34.0 °F 61% 30.14 in 10.0 mi ESE 4.6 mph - N/A   Overcast
6:53 PM 45.0 °F - 33.1 °F 63% 30.12 in 10.0 mi Calm Calm - N/A   Overcast
7:53 PM 44.1 °F 42.5 °F 32.0 °F 63% 30.12 in 10.0 mi Variable 3.5 mph - N/A   Overcast
8:31 PM 43.0 °F 38.8 °F 32.0 °F 65% 30.10 in 10.0 mi SE 6.9 mph - N/A   Overcast
8:53 PM 43.0 °F - 32.0 °F 65% 30.11 in 10.0 mi Calm Calm - 0.00 in Rain Light Rain
9:53 PM 39.0 °F 36.8 °F 34.0 °F 82% 30.10 in 8.0 mi NE 3.5 mph - 0.04 in Rain Light Rain
10:50 PM 37.4 °F 34.9 °F 33.8 °F 87% 30.05 in 5.0 mi NNW 3.5 mph - 0.09 in Rain Light Rain
10:53 PM 37.9 °F 34.4 °F 34.0 °F 86% 30.06 in 4.0 mi NW 4.6 mph - 0.10 in Rain Light Rain
11:17 PM 37.9 °F - 34.0 °F 86% 30.03 in 6.0 mi Calm Calm - 0.05 in Rain Light Rain
11:39 PM 37.9 °F 34.4 °F 34.0 °F 86% 30.02 in 6.0 mi NNW 4.6 mph - 0.06 in Rain Light Rain
11:53 PM 37.9 °F - 35.1 °F 89% 30.03 in 5.0 mi Calm Calm - 0.08 in Rain Light Rain